Location: Melbourne
(37.8666°S, 145.1333°E)
Time: 05:25:54
(UTC+10:00)

Iridium 72 - Visible Passes

Search period start: 17 September 2014 00:00
Search period end: 27 September 2014 00:00
Orbit: 776 x 779 km, 86.4° (Epoch: 16 September)

Date Brightness Start Highest point End Pass type
(mag) Time Alt. Az. Time Alt. Az. Time Alt. Az.
17 Sep 6.1 18:30:21 10° SSE 18:35:11 35° E 18:39:56 10° NNE visible
17 Sep 7.8 20:11:29 10° SSW 20:15:39 24° W 20:19:47 10° NW visible
18 Sep 6.7 19:37:20 10° SSW 19:42:21 45° W 19:47:17 10° NNW visible
19 Sep 5.6 19:03:36 10° S 19:08:55 85° W 19:14:09 10° N visible
20 Sep 8.5 20:12:19 10° SW 20:15:33 17° W 20:18:46 10° WNW visible
21 Sep 9.1 05:48:17 10° E 05:50:01 12° ESE 05:51:46 10° ESE visible
21 Sep 7.5 19:37:45 10° SSW 19:42:19 31° W 19:46:51 10° NW visible
22 Sep 6.3 19:03:47 10° S 19:08:58 58° W 19:14:05 10° NNW visible
23 Sep 8.9 20:14:02 10° WSW 20:15:25 11° WSW 20:16:47 10° W visible
24 Sep 8.3 19:38:22 10° SSW 19:42:15 21° W 19:46:07 10° NW visible
25 Sep 7.2 19:04:05 10° SSW 19:08:58 39° W 19:13:47 10° NNW visible
